This is the latest recevied weather packets stored in our database for station/object DO1BDB-12. If no packets are shown the sender has not sent any weather packets the latest 10 day(s).
| Time | Temp. | Humidity | Pressure | Rain* | Wind** | Luminosity | Snow |
|---|---|---|---|---|---|---|---|
| 1777634067 | 25° C | 32% | 102.8 hPa | - | - | - | - |
| 1777634002 | 26.11° C | 29% | 102.8 hPa | - | - | - | - |
| 1777633935 | 23.89° C | 32% | 102.8 hPa | - | - | - | - |
| 1777633870 | 23.89° C | 32% | 102.9 hPa | - | - | - | - |
| 1777633804 | 24.44° C | 30% | 102.8 hPa | - | - | - | - |
| 1777633738 | 24.44° C | 29% | 102.8 hPa | - | - | - | - |
| 1777633672 | 26.11° C | 30% | 102.8 hPa | - | - | - | - |
| 1777633606 | 25° C | 29% | 102.8 hPa | - | - | - | - |
| 1777633540 | 26.67° C | 30% | 102.8 hPa | - | - | - | - |
| 1777633474 | 26.11° C | 29% | 102.8 hPa | - | - | - | - |
| 1777633409 | 25.56° C | 31% | 102.9 hPa | - | - | - | - |
| 1777633343 | 25.56° C | 30% | 102.8 hPa | - | - | - | - |
| 1777633277 | 26.11° C | 30% | 102.8 hPa | - | - | - | - |
| 1777633211 | 26.11° C | 29% | 102.8 hPa | - | - | - | - |
| 1777633145 | 26.11° C | 29% | 102.8 hPa | - | - | - | - |
| 1777633079 | 25.56° C | 28% | 102.9 hPa | - | - | - | - |
| 1777633014 | 26.11° C | 30% | 102.9 hPa | - | - | - | - |
| 1777632948 | 25.56° C | 29% | 102.8 hPa | - | - | - | - |
| 1777632882 | 25.56° C | 27% | 102.9 hPa | - | - | - | - |
| 1777632816 | 26.11° C | 29% | 102.9 hPa | - | - | - | - |
| 1777632750 | 26.67° C | 27% | 102.8 hPa | - | - | - | - |
| 1777632684 | 26.11° C | 29% | 102.9 hPa | - | - | - | - |
| 1777632619 | 25° C | 29% | 102.9 hPa | - | - | - | - |
| 1777632553 | 25.56° C | 29% | 102.9 hPa | - | - | - | - |
| 1777632487 | 24.44° C | 29% | 102.9 hPa | - | - | - | - |
* Rain since midnight (hover to see other rain measurements)
** Current wind speed in m/s (hover to see current wind gust speed)